Weather in Nazareth Illit

Israel     32°42′17″N   35°19′32″E
temp.,
°C
wind,
m/s
gust,
m/s
humid.,
%
clouds,
%
prec.,
mm/h
press.,
hPa
HPBL,
m
27 november, sat
sat2723:00+16nw00764 0.0 102111
02:00+15e22775 0.0 102016
05:00+15ene337296 0.0 102133
08:00+17e49565 0.0 1021303
11:00+23e673137 0.0 1020663
14:00+25e452569 0.0 1018914
17:00+21nne113511 0.0 101811
20:00+19ene333618 0.0 101920
28 november, sun
sun2823:00+18e333842 0.0 101934
02:00+17e334116 0.0 101834
05:00+17e33435 0.0 101822
08:00+19ese23405 0.0 101999
11:00+25se2227100 0.0 1019494
14:00+27sw23245 0.0 1017936
17:00+21nw22475 0.0 101812
20:00+19nw1147100 0.0 101911
29 november, mon
mon2923:00+19ne0144100 0.0 101911
02:00+18e11406 0.0 101911
05:00+18e113929 0.0 101911
08:00+21e2335100 0.0 102067
11:00+25e4625100 0.0 1020436
14:00+27e4722100 0.0 1017586
17:00+23ene3328100 0.0 101734
20:00+21e4531100 0.0 101861
30 november, tue
tue3023:00+20e45337 0.0 101766
02:00+19e4534100 0.0 101658
05:00+18e3336100 0.0 101636
08:00+20e343376 0.0 1017101
11:00+26sse352194 0.0 1016665
14:00+25wsw5733100 0.0 1015675
17:00+20w226867 0.0 101623
20:00+18wnw3689100 0.0 1017120
1 december, wed
wed123:00+18wnw3789100 0.0 1017212
02:00+19wnw4668100 0.1 1016605
05:00+19w576299 0.0 1016561
08:00+18wsw3663100 0.1 1016894
11:00+18w687298 0.6 1015906
14:00+18wsw6106999 1.8 10131177
17:00+17w9147857 1.6 1013812
20:00+16wnw101468100 3.5 10141156